Other Public Products
Issued by NWS Grand Forks, ND

Home | Current Version | Previous Version | Text Only | Print | Product List | Glossary Off
Versions: 1 2 3 4 5 6 7 8 9 10 11 12 13 14 15 16 17 18 19 20 21 22 23 24 25 26 27 28 29 30 31 32 33 34 35 36 37 38 39 40 41 42 43 44 45 46 47 48 49 50

201
FPUS83 KFGF 181510
OPUFGF
PRAIRIE TO PINES WEATHER ROUNDUP
NATIONAL WEATHER SERVICE EASTERN NORTH DAKOTA/GRAND FORKS ND
900 AM CST WED JAN 18 2017

 **SATELLITE DATA USED TO AUGMENT SKY COVER AT AUTOMATED STATIONS**
 *****  WEATHER ACROSS EASTERN NORTH DAKOTA  *****

CITY           SKY/WX    TMP DP  RH WIND       PRES   REMARKS
GRAND FORKS    FAIR      21  16  81 S10       29.71S WCI  10
GRAND FORKS AF FAIR      25  19  77 S8        29.71R WCI  16
GRAND CITY NWS NOT AVBL
BUXTON         NOT AVBL
DEVILS LAKE    FAIR      24  21  88 SW5       29.69R WCI  18
FARGO          FAIR      20  15  81 S10       29.77F WCI   9
WAHPETON ARPT  FAIR      19  16  86 SE3       29.81S
$$

 *****  WEATHER ACROSS CENTRAL AND WESTERN NORTH DAKOTA  *****

CITY           SKY/WX    TMP DP  RH WIND       PRES   REMARKS
JAMESTOWN      FAIR      29  21  72 W10       29.73R WCI  20
BISMARCK       FAIR      16  11  80 E5        29.76S WCI   9
MINOT          FAIR      34  26  72 SW16      29.65F WCI  24
MINOT AFB      NOT AVBL
GARRISON         N/A     23  18  81 S5        29.70F WCI  17
WILLISTON      FAIR      25  20  81 S7        29.66F WCI  17
DICKINSON      FAIR      32  21  64 SW8       29.69F WCI  25
HETTINGER      FAIR      21  15  78 CALM      29.76F
$$

 *****  OTHER OBSERVATIONS NORTHEAST NORTH DAKOTA  *****

CITY           SKY/WX    TMP DP  RH WIND       PRES   REMARKS
WALHALLA       NOT AVBL
LANGDON        NOT AVBL
CAVALIER         N/A     23  19  86 SW7       29.67R WCI  15
GRAFTON        FAIR      21  19  93 S9        29.71S WCI  11
CANDO          NOT AVBL
FORT TOTTEN      N/A     32  24  72 S5        29.95S
ROLLA            N/A    N/A N/A N/A MISG        N/A
RUGBY            N/A     25  21  86 S5        29.68S WCI  19
 ***** THE ABOVE OBSERVATIONS ARE NON NWS ARE NOT QUALITY
        CONTROLLED AND MAY MIS-REPORT RAIN FOR SNOW...
$$

 *****  OTHER OBSERVATIONS SOUTHEAST NORTH DAKOTA *****

CITY           SKY/WX    TMP DP  RH WIND       PRES   REMARKS
COOPERSTOWN    FAIR      23  19  86 W9        29.72S WCI  13
VALLEY CITY    FAIR      23  21  93 S6        29.76S WCI  16
OAKES          NOT AVBL
GWINNER        FAIR      25  21  86 SW18      29.78F WCI  11
SHEYENNE NWR     N/A     24  17  73 SW10      29.95S WCI  14
BUFFALO        NOT AVBL
WYNDMERE       NOT AVBL
 ***** THE ABOVE OBSERVATIONS ARE NON NWS ARE NOT QUALITY
       CONTROLLED AND MAY MIS-REPORT RAIN FOR SNOW...
$$

  *****  WEATHER ACROSS NORTHERN MINNESOTA  *****

CITY           SKY/WX    TMP DP  RH WIND       PRES   REMARKS
FLAG ISLAND    FAIR      12   9  85 S9        29.66R WCI   0
WARROAD        FAIR      21  18  86 SW7       29.67S WCI  13
ROSEAU         FAIR      19  14  79 S10       29.67F WCI   8
HALLOCK        FAIR      19  18  93 S10       29.68R WCI   8
THF RVR FALLS  FAIR      22  17  81 S9        29.73R WCI  12
HALSTAD        NOT AVBL
FOSSTON        FAIR      23  18  80 S16       29.74S WCI  10
BAUDETTE       FAIR      20  15  81 S6        29.68S WCI  12
WASKISH        FAIR      18  14  86 CALM      29.72R
CROOKSTON      FAIR      19  16  86 S9        29.75R WCI   9
$$
  *****  WEATHER ACROSS CENTRAL AND WEST MINNESOTA  *****

CITY           SKY/WX    TMP DP  RH WIND       PRES   REMARKS
BEMIDJI        FAIR      27  20  76 SW7       29.71S WCI  19
PARK RAPIDS    FAIR      18  14  84 SE7       29.76S FOG     WCI   9
WADENA         FAIR      21  19  93 CALM      29.79R
DETROIT LAKES  FAIR      28  21  74 SW8       29.78S WCI  20
MOORHEAD       FAIR      21  16  79 S9        29.79R WCI  11
FERGUS FALLS   FAIR      21  18  86 S7        29.85F WCI  13
ELBOW LAKE     FAIR      23  19  87 E8        29.82S FOG     WCI  14
MORRIS MN      FAIR      21  19  93 SE8       29.81F WCI  12
STAPLES        FAIR      21  21 100 CALM      29.80R
WHEATON        FAIR      25  21  86 SE8       29.83F WCI  16
$$
  *****  WEATHER ELSEWHERE ACROSS MINNESOTA  *****

CITY           SKY/WX    TMP DP  RH WIND       PRES   REMARKS
DULUTH         FAIR      27  24  89 W14       29.78R WCI  16
INTRNTL FALLS  FAIR      22  16  78 SW3       29.71R
ELY            FAIR      25  21  86 SW7       29.73F WCI  17
CLOQUET        FAIR      27  23  86 SW10      29.79S WCI  17
BRAINERD       FAIR      23  20  88 S7        29.82S FOG     WCI  15
HIBBING        FAIR      22  21  96 CALM      29.76S
ALEXANDRIA     FAIR      26  21  81 SW10      29.82S WCI  16
SAINT CLOUD    FAIR      23  22  96 S6        29.86S FOG     WCI  16
MINNEAPOLIS    FAIR      31  26  82 S6        29.91R
$$

  *****  WEATHER ACROSS SOUTH DAKOTA  *****

CITY           SKY/WX    TMP DP  RH WIND       PRES   REMARKS
SIOUX FALLS    FAIR      24  22  91 NW3       29.90R
BROOKINGS      FAIR      22  21  96 SE6       29.85F WCI  14
WATERTOWN      FAIR      19  16  88 S8        29.84R WCI   9
HURON          FAIR      18  16  92 SE7       29.85S WCI   9
SISSETON         N/A     36  22  56 SW6       29.79F
ABERDEEN       FAIR      17  11  77 S12       29.82F WCI   4
MITCHELL       FAIR      20  18  92 E3        29.87F
PIERRE         FAIR      14  11  87 CALM      29.82S
MOBRIDGE       FAIR      19  11  70 E9        29.76F WCI   8
RAPID CITY     FAIR      27  18  69 E3        29.77S
$$

  *****  SOME WEATHER IN NEARBY STATES *****

CITY           SKY/WX    TMP DP  RH WIND       PRES   REMARKS
GLASGOW MT     FAIR      25  20  81 SE13      29.57F WCI  14
GREAT FALLS MT FAIR      41  24  51 SW22      29.57F
CHEYENNE WY    FAIR      29  10  45 VRB6      29.92R WCI  23
SCOTTSBLUFF NE FAIR      22  15  75 NW5       29.90F WCI  16
OMAHA NE       FAIR      30  26  85 SE9       30.04S WCI  22
DES MOINES IA  FOG       31  30  96 S10       30.10R VSB 1/4 WCI  22
DAVENPORT IA   CLOUDY    31  29  92 SW12      30.15R FOG     WCI  22
CHICAGO IL     CLOUDY    33  32  96 W12       30.13S FOG     WCI  24
EAU CLAIRE WI  FAIR      28  25  88 S6        29.93F WCI  22
LA CROSSE WI   FAIR      33  28  81 S9        30.02F
$$

  *****  SOME NATIONAL WEATHER *****

CITY           SKY/WX    TMP DP  RH WIND       PRES   REMARKS
LA GUARDIA NY  DRIZZLE   42  38  85 NE14      29.94R FOG
RALEIGH NC     FAIR      65  55  70 W9G17     29.99R
ATLANTA GA     PTSUNNY   63  59  87 NW9       30.17R
NEW ORLEANS LA FOG       69  69 100 SE6       30.16R VSB 3/4
OKLAHOMA CITY  CLOUDY    42  39  89 S3        30.15R
ALBUQUERQUE NM FAIR      38  34  85 CALM      30.12F
SALT LAKE CITY FAIR      20  17  88 N7        30.17R FOG     WCI  11
LOS ANGELES CA FAIR      49  43  80 E5        30.17S
BOISE ID       LGT SNOW  16  12  84 CALM      30.02F FOG
SEATTLE WA     LGT RAIN  46  44  93 E12       29.33F
$$

*** WEATHER ACROSS MANITOBA...SASKATCHEWAN AND ONTARIO ***
                ***ONTARIO***

CITY           SKY/WX    TMP DP  RH WIND       PRES   REMARKS
GERALDTON      MOCLDY    32  27  80 SW13G18   29.64R WCI  22
THUNDER BAY    PTCLDY    16  16 100 W5        29.72F WCI   9
SIOUX LOOKOUT  MOCLDY    23  19  86 W3        29.68R
TORONTO        CLOUDY    37  34  87 NW10      29.96R
BIG TROUT LK   CLOUDY    30  27  86 W8        29.52R WCI  23
PICKLE LAKE    MOCLDY    25  21  86 W8        29.59R WCI  16
DRYDEN         PTCLDY    21  18  86 W3        29.68R
KENORA         PTCLDY    19  16  86 S8        29.66R WCI   9
$$
                *** MANITOBA***

CITY           SKY/WX    TMP DP  RH WIND       PRES   REMARKS
BRANDON        MOCLDY    18  16  93 W9        29.62S WCI   6
DAUPHIN        CLEAR     36  28  75 W16       29.53S
ISLAND LAKE    MOCLDY    23  19  86 CALM      29.57R
PILOT MOUND      N/A     19  18  93 SW9         N/A  WCI   9
THE PAS        MOCLDY    27  23  86 SE8       29.48S WCI  18
THOMPSON       CLOUDY    34  30  86 S2        29.53R
WINNIPEG       PTCLDY    21  19  93 S9        29.63R WCI  11
LYNN LAKE      FOG       21  19  93 S5        29.45S VSB 1/8 WCI  15
CHURCHILL      LGT SNOW   9   7  92 N10       29.57R DRFTSNOWWCI  -6
GILLAM         CLOUDY    32  28  86 N7        29.53R
$$
                ***SASKATCHEWAN***

CITY           SKY/WX    TMP DP  RH WIND       PRES   REMARKS
ESTEVAN        MOCLDY    28  25  86 S15       29.60F WCI  17
KINDERSLEY     PTCLDY    32  27  80 S12       29.31S WCI  23
LLOYDMINSTER   MOCLDY    34  28  80 S10       29.19F
PRINCE ALBERT  MOCLDY    21  19  93 E8        29.34F WCI  12
REGINA         PTCLDY    25  21  86 SE13      29.50F WCI  13
YORKTON        CLEAR     28  25  86 S10       29.50F WCC1F1C2F2C3F3C4F4C5F5C6F6C7F7C8F8C9F9CaFaCbFbCcFcCdFdCe!



USA.gov is the U.S. government's official web portal to all federal, state and local government web resources and services.